Temperature
19 20 20 20 17 14 17 18 18 18 18 19 19 18 16 16 16 18 20 20 19 18 17 16 16 15 15 14 13 12 12 11 11 10 10 10 10 9 9 9 9 8 8 8 8 8 9 9 10
19 20 20 20 15 15 16 17 17 18 18 19 19 19 18 18 19 20 20 20 19 18 17 17 16 15 15 14 13 13 12 12 11 11 10 10 10 9 9 9 9 8 8 8 8 9 9 9 10
19 19 20 15 15 16 18 18 17 18 18 19 19 19 19 20 20 20 20 20 19 18 17 16 16 15 14 14 14 13 12 12 11 11 10 10 10 10 9 9 9 9 9 9 9 9 9 9 10
19 19 19 15 17 16 17 18 18 18 18 18 18 18 19 20 20 20 20 20 20 19 17 16 15 15 14 14 13 13 12 12 11 11 10 10 10 10 10 10 9 9 9 9 9 9 9 9 10
19 19 16 15 17 17 16 17 18 17 18 18 18 18 19 20 20 20 20 20 20 19 17 16 15 15 14 13 13 13 12 12 11 11 10 10 10 10 10 10 10 10 10 9 9 9 9 10 10
20 17 15 15 16 16 16 18 17 17 17 18 18 18 20 21 20 20 19 19 19 18 18 16 15 14 13 13 13 12 12 12 11 11 11 10 10 10 10 10 10 10 10 10 10 10 10 10 10
19 14 15 16 16 16 18 18 17 17 17 18 19 18 20 21 20 20 19 19 18 18 17 16 15 14 13 12 12 12 12 12 11 11 11 10 10 10 10 10 10 10 10 10 10 10 10 10 10
19 15 16 16 16 17 18 19 19 19 19 19 19 18 20 20 20 20 19 18 18 17 17 16 15 14 13 12 12 12 12 12 11 11 11 11 11 10 10 10 10 10 10 10 10 10 10 10 10
19 15 15 16 17 17 18 19 19 19 19 19 19 20 20 20 19 19 19 19 18 17 17 16 15 15 14 13 12 11 11 11 11 11 11 11 11 11 11 10 10 10 10 10 10 10 10 10 10
18 14 16 16 17 17 18 18 19 19 18 18 19 19 19 19 19 19 19 19 19 18 18 17 16 15 14 13 12 11 11 11 11 11 11 12 12 11 11 11 10 10 10 10 10 10 10 10 10
17 15 16 17 18 18 18 18 18 18 16 18 19 19 19 18 18 18 19 19 19 18 18 17 16 15 14 13 13 12 12 11 11 12 12 12 12 11 11 11 11 10 10 10 10 10 10 9 9
16 16 17 17 18 18 18 18 17 17 18 19 18 18 18 18 18 19 19 19 18 18 18 17 16 15 14 14 13 12 12 12 12 11 11 11 11 11 11 11 10 10 10 10 9 9 9 9 9
16 16 17 18 18 17 17 17 17 18 19 18 18 18 19 19 19 18 18 18 17 17 17 17 16 15 15 14 13 12 12 12 11 11 11 11 11 11 10 10 10 10 9 9 9 9 9 9 9
16 16 16 17 17 16 15 15 15 18 18 18 19 18 18 19 18 18 18 18 18 18 17 17 16 15 14 14 13 13 12 12 11 11 10 10 10 10 10 10 9 9 9 9 9 8 8 8 8
16 15 14 16 16 16 15 15 14 17 18 18 18 17 18 18 18 18 18 18 18 17 17 16 16 15 14 14 13 13 12 11 11 11 10 10 10 10 9 9 9 9 9 8 8 8 8 8 8
15 14 15 16 15 15 16 16 16 16 17 16 16 17 17 17 18 18 18 18 18 17 17 16 16 15 15 14 13 12 12 11 11 10 10 10 10 9 9 9 9 9 8 8 8 7 7 7 8
14 14 15 15 15 15 15 15 14 16 16 15 15 16 16 17 17 18 18 18 18 18 17 16 16 15 15 14 13 12 11 11 11 10 10 10 9 9 9 9 8 8 8 7 7 7 7 7 7
15 15 15 14 15 14 14 13 13 15 14 14 15 15 16 16 16 17 17 18 18 17 17 16 15 15 14 13 13 12 12 11 11 11 11 10 10 9 9 8 8 8 7 7 7 7 7 6 6
15 15 14 13 14 14 13 12 12 13 13 14 14 15 15 15 16 16 17 17 17 17 16 16 15 14 14 13 13 12 12 12 11 11 11 10 10 9 9 9 8 8 7 7 7 6 6 6 6
14 14 13 13 14 13 12 12 12 13 13 13 13 14 15 16 16 16 16 16 16 16 15 15 15 14 13 13 12 12 11 11 11 10 10 10 9 9 9 8 8 8 7 7 6 6 6 5 5
14 14 14 14 13 12 12 13 14 13 13 13 13 14 15 15 15 15 16 15 15 15 15 14 14 14 13 13 12 12 11 11 11 10 10 9 9 8 8 8 7 7 7 6 6 6 5 5 5
13 14 13 14 13 11 12 12 13 13 13 13 13 14 14 14 15 15 15 15 14 14 14 14 13 13 13 12 12 11 11 11 10 10 9 9 9 8 8 7 7 7 6 6 6 6 5 5 4
14 14 13 13 12 11 11 12 11 12 13 13 13 13 13 14 14 14 14 13 13 13 13 13 13 12 12 12 12 11 11 10 10 10 10 9 9 8 8 7 7 7 6 6 6 5 5 4 4
13 12 10 9 9 12 12 11 12 11 12 12 12 13 13 13 13 13 13 13 13 12 12 12 12 12 11 11 11 10 10 10 10 9 9 9 9 8 8 7 7 7 6 6 6 5 5 4 4
13 12 12 13 12 12 12 11 11 12 11 11 12 13 13 13 13 13 12 12 12 12 12 11 11 11 11 10 10 10 9 9 9 8 8 8 8 8 7 7 7 7 6 6 6 5 5 4 4
13 13 13 14 12 11 11 10 11 11 10 11 13 13 13 13 12 12 12 12 11 11 11 11 11 10 10 10 9 9 8 8 8 7 7 7 7 7 7 6 6 6 6 6 5 5 5 4 4
12 12 11 10 11 11 10 10 11 11 10 10 11 12 13 12 12 12 11 11 11 11 10 10 10 10 9 9 8 8 8 7 7 7 6 6 6 6 6 6 6 6 5 5 5 5 4 4 4
12 10 9 10 12 12 11 11 11 12 11 10 10 11 12 12 12 11 11 11 10 10 10 9 9 9 8 8 7 7 7 6 6 6 6 6 6 5 5 5 5 5 5 5 4 4 4 3 3
11 11 10 9 9 10 11 11 11 11 10 10 10 12 12 12 11 11 11 10 10 9 9 9 8 8 7 7 7 6 6 6 6 6 5 5 5 5 5 5 5 4 4 4 3 3 3 2 2
11 11 9 11 10 8 9 10 11 10 10 10 11 11 11 11 11 10 10 10 9 9 8 8 7 7 6 6 6 6 5 5 5 5 5 5 5 5 4 4 4 4 3 3 3 2 2 1 1
Wind_Speed
6 4 3 4 6 5 2 4 3 3 4 3 3 5 7 7 7 5 2 9 7 13 23 23 23 21 19 17 15 14 12 11 10 9 9 8 8 8 8 9 9 9 10 10 11 11 12 12 13
3 2 5 6 5 1 5 5 5 5 3 1 2 2 2 6 5 4 2 8 10 17 22 20 23 21 19 18 16 15 13 12 11 10 9 8 8 8 8 8 8 8 8 9 10 10 11 11 12
1 3 5 5 4 5 5 4 6 2 1 1 1 2 3 5 4 4 5 10 12 16 21 20 23 21 20 18 17 16 14 13 12 11 10 9 8 8 7 7 7 7 7 8 8 9 9 10 10
3 5 6 5 2 5 5 6 3 2 0 1 1 4 5 2 2 2 6 11 11 13 19 20 23 21 20 19 17 16 15 14 12 11 10 9 8 8 7 7 7 6 6 6 7 7 8 8 8
4 5 5 2 4 5 5 6 3 5 2 1 3 4 6 1 3 5 9 11 13 12 18 19 23 22 20 19 18 17 16 15 13 12 11 10 9 8 7 7 6 6 5 5 5 6 6 6 7
5 5 4 2 6 6 6 3 2 4 3 1 4 3 7 1 3 5 8 9 9 11 16 18 22 21 20 19 18 17 16 15 14 13 12 11 10 9 8 7 7 6 5 4 4 4 4 4 5
5 5 4 3 4 6 4 3 4 4 4 5 6 4 7 2 2 6 8 8 8 12 14 15 17 21 21 20 19 18 17 16 15 14 13 12 11 10 9 8 7 6 5 4 3 2 2 2 3
5 5 2 2 3 6 4 2 3 6 7 3 8 7 8 2 5 8 7 7 7 7 10 14 14 16 19 20 20 19 18 17 16 15 14 13 12 11 10 9 8 7 6 5 4 2 1 0 1
4 4 3 5 5 6 3 2 3 1 2 3 6 7 3 4 7 8 6 4 6 9 8 12 13 13 16 18 19 20 19 18 17 16 15 14 11 9 7 8 9 8 7 6 5 5 4 2 1
5 3 7 6 5 5 3 3 4 3 5 5 7 6 3 5 8 10 10 12 13 14 12 9 12 12 14 16 17 17 18 17 17 15 14 13 11 10 7 7 10 10 9 8 8 7 5 3 2
4 6 6 5 5 4 4 4 3 3 8 10 11 9 4 7 8 11 11 11 15 12 12 12 12 13 14 14 15 13 14 15 15 15 14 12 11 10 8 7 7 7 6 5 4 3 2 3 4
3 5 5 5 2 3 5 4 4 7 11 7 6 6 5 9 13 15 15 13 9 9 12 11 12 12 13 14 14 13 12 13 13 15 15 14 11 9 9 8 8 7 5 4 5 5 5 6 7
4 5 4 5 6 6 6 6 6 9 9 8 7 5 8 10 12 12 10 8 9 11 11 11 10 11 12 12 12 13 13 14 15 16 16 17 13 11 10 10 10 10 9 8 8 8 8 9 10
3 4 7 7 6 3 5 5 4 8 4 6 6 7 8 9 10 9 9 10 11 12 11 11 12 12 13 11 10 11 14 15 15 16 18 19 18 15 13 12 12 13 14 13 12 11 10 10 11
2 6 9 4 2 2 1 6 4 5 6 9 10 9 8 6 6 9 10 11 11 9 9 11 11 11 11 11 12 13 14 15 14 16 19 20 20 18 16 12 12 16 18 16 14 12 10 9 9
3 4 5 5 3 3 2 6 3 5 8 9 10 10 9 7 4 6 8 9 9 8 8 10 11 12 11 10 11 12 13 15 15 16 18 20 21 20 17 13 13 17 17 15 11 8 5 7 7
3 2 4 7 4 3 1 8 7 6 7 7 8 9 9 10 10 9 7 5 5 7 7 9 10 11 11 9 10 10 11 13 14 16 17 18 20 20 18 15 15 16 13 12 10 7 6 8 9
3 3 4 6 5 3 4 9 10 7 3 3 6 8 9 11 11 11 10 7 2 2 4 6 8 8 8 6 5 5 6 8 12 14 17 18 19 20 19 16 15 14 8 8 8 9 8 7 8
2 3 6 7 4 4 6 8 9 6 3 4 5 7 9 9 8 10 11 10 8 5 1 3 5 6 6 4 4 4 6 5 5 11 15 18 19 19 18 15 12 12 9 12 11 8 8 8 4
3 4 6 6 2 2 6 7 5 2 2 2 3 6 8 9 11 13 12 12 10 7 4 1 2 4 6 5 4 3 3 4 5 9 14 18 19 19 18 15 11 10 9 10 10 9 6 6 6
4 5 5 5 5 3 4 5 2 2 2 3 4 4 6 8 9 10 11 11 10 10 7 3 1 2 4 5 3 3 2 1 2 4 6 12 17 18 19 18 15 11 10 12 13 13 11 10 7
5 5 5 2 2 5 4 3 4 1 1 1 2 4 6 7 7 8 9 9 9 8 7 6 4 3 2 4 4 5 5 5 6 4 5 7 14 17 19 19 17 12 10 13 13 13 12 11 11
6 2 2 1 2 3 2 2 7 2 5 6 3 1 3 5 6 7 7 7 7 7 7 6 6 5 3 2 4 5 6 6 5 4 6 7 7 12 15 16 14 12 10 13 13 12 13 12 13
5 5 5 5 4 2 3 4 6 5 7 6 5 4 2 3 5 6 6 6 7 7 7 7 7 6 3 1 2 4 6 7 7 7 7 6 5 6 10 13 12 11 10 13 14 13 13 14 15
4 4 4 4 3 4 1 3 8 5 5 7 9 7 4 2 2 4 5 7 7 8 7 7 7 6 4 2 1 3 5 6 7 8 7 7 5 5 8 7 8 9 10 12 11 12 14 15 16
5 6 5 3 4 5 3 6 7 4 4 4 6 7 5 3 1 1 3 4 5 6 6 6 6 5 5 4 4 3 4 4 5 6 6 6 6 7 8 6 8 9 10 11 10 11 14 13 15
6 3 5 5 2 4 6 7 8 1 4 5 6 6 5 3 1 1 3 4 4 5 5 5 6 6 6 6 6 6 5 4 6 6 6 6 7 7 8 7 9 9 9 11 11 11 14 13 14
4 8 6 4 2 4 7 6 5 5 5 5 6 6 5 2 1 1 2 3 4 4 5 5 5 5 5 6 6 5 6 6 6 6 8 8 8 8 9 9 9 9 10 10 11 11 13 14 14
5 4 5 4 4 4 4 7 6 7 8 8 8 6 4 3 1 1 2 3 4 5 5 5 6 6 6 7 6 7 7 7 7 7 8 8 8 9 9 10 10 10 11 10 10 12 12 14 15
6 7 8 5 5 5 4 8 4 4 5 6 5 4 3 3 2 2 2 3 4 5 6 6 6 6 6 6 6 7 7 8 8 8 9 9 9 9 10 10 10 11 12 11 11 14 13 14 16
Wind_Direction
340 356 50 53 51 47 292 262 233 237 242 229 162 162 174 182 178 230 293 154 154 155 171 181 175 175 174 173 169 165 163 158 151 144 137 129 122 113 105 97 91 85 80 76 73 71 70 70 70
349 28 52 59 83 46 280 259 246 229 250 91 91 112 189 241 227 254 229 178 161 159 170 179 176 176 176 175 173 170 168 165 161 155 148 142 135 127 117 109 103 95 88 82 77 73 72 72 72
352 47 81 76 116 185 249 255 247 264 99 119 219 243 230 243 228 240 203 167 154 160 170 178 176 177 178 178 176 174 173 171 168 164 159 155 149 140 130 122 114 106 97 89 81 77 74 75 76
86 50 57 79 202 223 238 273 260 248 136 195 196 283 270 255 246 230 154 156 151 161 171 180 178 180 180 181 180 179 178 177 175 172 169 166 162 155 146 138 129 121 111 101 90 82 77 76 80
60 76 63 27 269 264 260 277 233 203 212 244 169 269 276 277 66 117 145 160 160 161 172 182 181 183 184 184 184 184 183 183 182 180 179 177 174 168 162 156 149 141 131 117 104 92 82 76 80
57 68 88 263 276 285 280 265 169 191 236 236 186 248 264 165 133 150 155 160 161 161 171 183 186 187 187 188 188 189 189 189 189 188 188 187 185 181 177 175 169 163 153 139 122 104 89 79 78
102 102 163 219 277 296 286 162 175 199 238 230 190 211 274 259 157 144 147 144 154 165 173 186 195 190 192 193 193 193 194 195 195 195 196 195 194 193 192 190 188 183 177 166 153 131 102 83 77
116 104 147 233 257 277 276 216 231 199 240 211 165 198 252 335 105 112 116 132 154 171 182 190 200 194 192 195 197 197 198 200 201 201 201 202 202 204 205 202 201 201 201 197 194 190 192 164 52
85 81 235 236 228 262 265 274 274 195 237 222 215 225 249 110 117 114 120 152 178 192 198 195 200 196 191 192 199 200 202 204 206 206 205 205 204 206 214 202 210 217 219 220 222 225 233 239 274
89 165 235 224 210 238 273 253 273 290 283 272 266 257 126 145 157 165 178 188 195 201 200 198 198 195 189 191 198 201 202 204 206 205 204 201 196 200 210 210 218 229 234 235 237 239 245 230 224
150 197 232 244 229 242 267 257 239 233 266 249 253 263 180 183 197 202 204 202 204 201 199 200 198 194 190 190 192 196 196 197 200 199 197 192 189 195 201 210 224 247 266 257 258 272 228 215 229
187 239 227 253 223 218 231 243 237 216 239 261 260 259 194 204 210 213 214 215 203 199 204 200 195 194 195 191 190 191 191 192 193 196 195 187 184 190 195 203 216 232 247 251 245 244 246 248 249
226 267 261 255 268 251 249 240 250 254 271 301 298 275 235 227 227 229 232 227 206 211 206 200 193 196 194 192 191 192 194 195 196 196 197 195 190 193 200 208 217 227 234 237 241 245 249 254 256
275 289 298 285 273 257 245 261 217 280 337 346 345 313 274 248 240 241 239 233 219 216 208 196 198 198 194 196 196 195 196 198 198 200 201 202 201 200 201 208 216 223 227 231 233 238 244 251 255
322 326 320 301 318 306 254 314 232 297 349 355 348 336 323 293 255 244 241 239 231 223 205 196 199 195 197 201 201 199 197 197 199 204 206 206 207 206 205 209 217 224 226 227 230 236 242 250 251
54 16 321 307 343 347 11 294 286 9 15 358 351 349 350 348 317 279 262 250 237 221 204 197 201 197 201 203 203 201 198 200 206 207 208 211 212 211 208 214 224 226 223 220 220 223 228 240 243
24 339 288 305 343 8 7 266 283 358 9 4 0 359 5 11 10 351 323 281 244 215 202 192 197 195 198 198 202 204 203 208 212 210 212 215 215 214 212 221 228 222 217 218 226 218 216 235 244
248 257 274 280 314 340 275 270 298 332 6 26 9 6 13 20 7 356 3 5 7 178 190 191 195 193 180 177 187 202 216 221 220 217 220 219 219 218 218 228 229 216 211 221 223 231 222 230 243
206 235 266 268 293 314 273 285 301 319 55 60 33 22 22 16 1 16 25 29 39 47 91 191 191 185 161 158 178 202 229 226 228 230 229 225 223 220 219 230 226 214 220 229 224 224 231 238 223
208 258 273 289 321 316 304 302 309 23 64 64 48 34 25 18 16 18 23 29 32 30 26 39 196 185 181 174 161 175 190 216 222 228 231 229 227 225 226 228 230 219 224 230 225 215 222 228 191
224 219 242 271 333 17 338 339 18 41 53 50 38 35 34 32 25 17 20 22 25 24 14 25 65 175 183 167 136 113 90 347 286 244 240 235 232 230 230 230 230 225 221 232 230 221 221 234 217
255 238 209 228 348 309 16 301 257 247 287 349 25 32 37 32 35 31 25 21 20 14 15 33 51 80 129 155 166 187 213 239 243 235 239 239 232 232 232 233 232 230 227 233 234 226 224 226 235
211 86 121 151 163 313 330 204 278 239 221 225 213 90 52 45 48 40 29 24 23 18 25 34 52 60 81 142 182 202 235 250 266 267 265 259 245 238 237 235 235 235 233 235 237 231 224 224 233
125 85 64 61 81 298 227 180 273 221 212 206 198 191 129 77 54 40 30 31 26 22 26 30 44 45 49 100 183 214 243 263 280 280 277 274 264 250 242 239 238 239 238 239 239 237 231 231 233
110 90 9 348 6 262 226 203 252 248 232 205 188 187 178 139 71 34 30 27 20 17 15 16 27 23 18 19 302 253 253 260 265 276 279 283 282 271 257 240 238 240 241 242 240 238 238 236 235
170 144 162 239 261 289 292 235 254 287 290 213 165 160 167 176 163 29 32 29 12 6 6 5 6 358 353 351 330 303 278 267 267 270 270 272 270 272 270 252 243 244 244 245 241 240 242 241 239
135 160 153 134 177 272 283 289 303 62 56 106 131 149 183 201 217 28 23 21 6 355 351 349 347 342 341 341 335 329 320 299 289 289 279 272 270 275 274 266 260 254 248 247 244 244 244 243 241
142 140 109 130 193 275 294 280 255 231 195 172 174 191 208 208 199 34 15 2 352 344 336 344 347 334 331 337 335 328 325 317 305 300 296 290 286 282 283 279 271 265 259 253 248 249 249 246 245
131 133 125 124 161 180 273 276 229 215 201 194 203 207 204 197 174 47 0 346 342 342 346 346 345 342 338 336 332 330 324 319 312 300 293 291 290 289 284 281 278 274 270 263 257 255 253 251 252
177 175 153 165 214 188 208 268 282 224 202 186 195 192 166 142 119 74 4 349 350 348 346 346 343 340 329 325 324 319 313 312 309 301 296 294 291 288 283 281 279 277 274 268 263 265 261 256 256
Height
1541 1542 1543 1545 1549 1561 1561 1554 1550 1549 1548 1546 1547 1548 1549 1550 1553 1554 1547 1545 1545 1547 1549 1551 1554 1556 1558 1560 1562 1563 1564 1565 1566 1567 1568 1568 1568 1569 1569 1569 1569 1569 1569 1568 1568 1568 1567 1567 1566
1541 1542 1545 1545 1557 1569 1564 1552 1550 1547 1547 1546 1546 1547 1547 1546 1545 1545 1544 1544 1545 1547 1549 1551 1553 1556 1558 1560 1562 1563 1564 1566 1567 1567 1568 1568 1569 1569 1569 1569 1569 1569 1569 1569 1569 1568 1568 1568 1567
1541 1543 1545 1549 1560 1566 1558 1548 1547 1546 1546 1546 1546 1547 1546 1545 1544 1544 1544 1544 1545 1546 1549 1551 1553 1555 1558 1560 1562 1563 1565 1566 1567 1568 1568 1569 1569 1570 1570 1570 1570 1570 1570 1569 1569 1569 1569 1569 1568
1542 1544 1546 1554 1557 1556 1552 1546 1545 1545 1545 1546 1547 1546 1545 1544 1543 1543 1544 1544 1545 1546 1548 1551 1553 1555 1557 1560 1562 1563 1565 1566 1567 1568 1568 1569 1570 1570 1570 1570 1570 1570 1570 1570 1570 1570 1570 1570 1569
1542 1544 1551 1559 1556 1551 1548 1545 1544 1544 1545 1545 1546 1545 1544 1543 1542 1542 1543 1544 1545 1546 1548 1550 1552 1555 1557 1559 1561 1563 1565 1566 1567 1568 1569 1569 1570 1570 1570 1571 1571 1571 1571 1571 1571 1571 1571 1571 1570
1543 1545 1559 1562 1556 1550 1546 1544 1544 1544 1544 1545 1545 1545 1542 1542 1541 1542 1542 1543 1544 1546 1547 1549 1552 1554 1556 1558 1560 1562 1564 1566 1567 1568 1569 1570 1570 1570 1571 1571 1571 1571 1571 1571 1571 1571 1571 1571 1571
1544 1550 1557 1556 1556 1551 1546 1544 1543 1543 1543 1544 1544 1544 1540 1540 1540 1540 1541 1542 1543 1545 1546 1548 1550 1552 1555 1557 1559 1561 1563 1565 1566 1567 1568 1569 1570 1570 1571 1571 1571 1572 1572 1572 1572 1571 1571 1571 1571
1544 1549 1553 1556 1554 1551 1545 1543 1543 1543 1542 1543 1543 1541 1539 1539 1538 1539 1539 1540 1541 1543 1544 1546 1548 1550 1552 1555 1557 1559 1561 1563 1565 1566 1568 1569 1569 1570 1571 1571 1571 1572 1572 1572 1572 1572 1571 1571 1571
1544 1552 1557 1554 1552 1547 1543 1543 1542 1542 1541 1540 1539 1538 1537 1536 1536 1537 1537 1538 1539 1540 1542 1544 1546 1548 1550 1552 1555 1557 1560 1562 1563 1565 1566 1568 1569 1569 1570 1571 1571 1571 1571 1571 1571 1571 1571 1571 1570
1544 1554 1551 1546 1545 1544 1542 1542 1541 1540 1539 1538 1536 1535 1534 1533 1533 1533 1534 1535 1536 1537 1539 1541 1543 1545 1547 1550 1552 1555 1557 1559 1561 1563 1564 1566 1567 1568 1569 1570 1570 1570 1571 1571 1571 1571 1570 1570 1570
1543 1547 1544 1542 1541 1541 1541 1540 1539 1539 1537 1534 1533 1532 1531 1530 1530 1530 1531 1532 1534 1535 1537 1538 1540 1542 1545 1547 1549 1552 1554 1556 1558 1560 1562 1564 1565 1567 1567 1568 1569 1569 1569 1569 1570 1569 1569 1569 1569
1543 1541 1541 1540 1540 1539 1539 1537 1537 1535 1533 1532 1531 1529 1527 1527 1526 1526 1527 1529 1531 1532 1534 1536 1538 1540 1542 1544 1546 1549 1551 1553 1555 1558 1560 1561 1563 1564 1565 1566 1567 1567 1567 1568 1568 1568 1567 1567 1566
1541 1540 1539 1538 1537 1536 1536 1535 1534 1530 1530 1529 1528 1526 1524 1523 1523 1523 1525 1526 1528 1529 1532 1534 1536 1537 1539 1541 1543 1546 1548 1550 1553 1555 1557 1558 1560 1561 1563 1563 1564 1564 1565 1565 1565 1565 1564 1564 1563
1540 1539 1537 1535 1534 1533 1533 1532 1532 1526 1528 1527 1525 1523 1521 1520 1520 1520 1521 1522 1524 1526 1528 1530 1532 1535 1537 1538 1540 1542 1545 1547 1550 1551 1553 1555 1556 1558 1559 1560 1560 1561 1561 1561 1561 1561 1560 1559 1559
1539 1539 1536 1532 1532 1532 1533 1532 1529 1527 1526 1525 1523 1520 1518 1517 1517 1517 1518 1519 1520 1522 1524 1526 1528 1531 1533 1535 1537 1539 1542 1544 1546 1548 1550 1551 1552 1553 1554 1555 1556 1556 1557 1557 1556 1556 1555 1554 1553
1539 1542 1542 1534 1532 1532 1535 1536 1528 1527 1525 1524 1522 1520 1517 1516 1516 1516 1516 1516 1517 1518 1519 1522 1524 1526 1529 1531 1534 1536 1538 1540 1542 1544 1546 1547 1548 1549 1549 1550 1550 1551 1552 1551 1550 1550 1549 1548 1547
1544 1548 1544 1538 1533 1532 1534 1534 1526 1526 1525 1524 1523 1521 1519 1518 1516 1515 1515 1514 1514 1515 1516 1518 1520 1522 1525 1528 1530 1532 1534 1536 1538 1539 1541 1542 1543 1544 1544 1544 1544 1545 1545 1545 1544 1543 1542 1541 1540
1545 1544 1543 1542 1535 1534 1534 1533 1527 1526 1525 1524 1524 1522 1521 1519 1518 1517 1516 1515 1514 1514 1514 1516 1517 1519 1522 1524 1526 1528 1530 1532 1533 1534 1536 1537 1538 1538 1538 1538 1538 1538 1538 1537 1537 1536 1535 1534 1533
1540 1542 1544 1541 1535 1535 1534 1533 1529 1525 1525 1525 1524 1523 1522 1521 1521 1520 1518 1517 1516 1515 1515 1516 1517 1518 1520 1521 1523 1525 1526 1528 1529 1530 1531 1531 1532 1532 1531 1531 1531 1530 1529 1529 1529 1528 1527 1525 1526
1540 1543 1543 1539 1535 1536 1535 1534 1528 1526 1526 1526 1525 1525 1524 1523 1523 1522 1521 1519 1518 1517 1517 1517 1517 1518 1519 1520 1521 1522 1523 1524 1525 1526 1526 1526 1525 1525 1524 1524 1523 1522 1521 1521 1520 1520 1518 1517 1518
1540 1542 1540 1539 1537 1536 1537 1533 1530 1528 1527 1527 1526 1526 1525 1525 1524 1524 1523 1522 1521 1520 1519 1518 1518 1518 1519 1519 1520 1520 1520 1520 1521 1521 1521 1521 1520 1519 1518 1516 1515 1514 1513 1511 1511 1511 1509 1508 1508
1541 1535 1537 1537 1542 1545 1542 1545 1533 1529 1528 1527 1527 1526 1526 1526 1526 1526 1525 1524 1523 1523 1522 1521 1520 1520 1520 1520 1520 1519 1519 1518 1518 1517 1515 1515 1514 1512 1511 1509 1508 1506 1504 1503 1502 1501 1500 1499 1497
1534 1533 1536 1538 1542 1547 1546 1547 1538 1530 1529 1528 1527 1527 1527 1527 1527 1527 1527 1526 1526 1525 1524 1523 1522 1522 1521 1520 1520 1519 1518 1517 1515 1514 1512 1510 1508 1506 1504 1502 1500 1498 1496 1494 1493 1492 1490 1488 1487
1532 1537 1542 1547 1550 1550 1542 1547 1537 1532 1526 1525 1525 1526 1527 1528 1528 1528 1528 1528 1527 1527 1526 1525 1524 1523 1522 1520 1519 1518 1516 1514 1512 1510 1508 1506 1504 1502 1499 1497 1494 1492 1489 1487 1485 1483 1481 1479 1477
1533 1541 1549 1545 1551 1548 1541 1545 1536 1523 1521 1521 1522 1524 1526 1527 1528 1528 1528 1528 1528 1527 1526 1525 1524 1523 1521 1519 1518 1516 1513 1511 1509 1506 1504 1501 1499 1496 1494 1491 1488 1486 1483 1480 1478 1475 1472 1470 1467
1533 1537 1548 1549 1552 1551 1543 1544 1528 1520 1518 1518 1520 1523 1525 1527 1528 1528 1528 1528 1528 1527 1526 1525 1523 1521 1519 1517 1515 1513 1510 1507 1505 1502 1499 1496 1494 1491 1488 1485 1482 1479 1476 1473 1470 1466 1463 1460 1457
1533 1537 1539 1550 1551 1553 1546 1538 1525 1519 1518 1518 1520 1522 1524 1525 1526 1527 1527 1527 1527 1526 1525 1523 1521 1519 1517 1514 1512 1509 1506 1503 1500 1498 1495 1492 1489 1485 1482 1479 1476 1472 1469 1465 1461 1457 1454 1450 1447
1529 1535 1545 1549 1550 1551 1545 1539 1530 1519 1519 1519 1520 1521 1522 1524 1525 1525 1526 1526 1525 1524 1523 1521 1518 1516 1513 1511 1508 1505 1502 1499 1496 1493 1490 1486 1483 1479 1476 1472 1468 1464 1461 1457 1452 1447 1444 1440 1435
1533 1535 1539 1548 1550 1552 1551 1537 1519 1516 1516 1517 1518 1519 1520 1521 1522 1523 1524 1524 1523 1522 1520 1518 1515 1512 1509 1507 1504 1501 1498 1495 1491 1488 1484 1480 1476 1472 1468 1464 1459 1455 1451 1447 1442 1437 1433 1428 1424
1526 1530 1537 1541 1545 1551 1551 1537 1513 1513 1512 1514 1516 1517 1518 1519 1520 1521 1522 1522 1521 1519 1517 1514 1511 1508 1505 1503 1500 1497 1494 1490 1486 1482 1478 1474 1469 1464 1460 1454 1449 1445 1440 1436 1431 1425 1421 1416 1411